Regional Weather Roundup
Issued by NWS Wakefield, VA

Home | Current Version | Previous Version | Graphics & Text | Print | Product List | Glossary On
Versions: 1 2 3 4 5 6 7 8 9 10 11 12 13 14 15 16 17 18 19 20 21 22 23 24 25 26 27 28 29 30 31 32 33 34 35 36 37 38 39 40 41 42 43 44 45 46 47 48 49 50
000
ASUS41 KAKQ 182214
RWRAKQ

REGIONAL WEATHER ROUNDUP
NATIONAL WEATHER SERVICE WAKEFIELD VA
600 PM EDT SAT APR 18 2015

Note: "fair" indicates few or no clouds below 12,000 feet with no
significant weather and/or obstructions to visibility. * = Denotes
station may not report precipitation (e.g., rain,snow,etc.),
thunder or fog.

VAZ042-051-052>054-056-182300-
NORTHERN VIRGINIA

CITY           SKY/WX    TMP DP  RH WIND       PRES   REMARKS
WASH NATIONAL  CLOUDY    80  45  28 NW7       29.97R
DULLES         PTSUNNY   77  42  28 NW5       29.97R
FORT BELVOIR   MOSUNNY   79  44  28 NW9       29.96R
QUANTICO       MOSUNNY   74  52  46 SE3       29.97R
FREDERICKSBRG* PTSUNNY   81  45  28 CALM      29.95F
STAFFORD*      PTSUNNY   76  44  31 NW6       30.01S
WARRENTON      MOSUNNY   80  47  32 CALM      29.96F
CULPEPER*      PTSUNNY   82  45  26 CALM      29.96F
MANASSAS*      SUNNY     79  43  27 N3        29.97R
LEESBURG*      PTSUNNY   79  45  29 SW9       29.98S
WINCHESTER     PTSUNNY   73  41  31 SE7       29.97F
FRONT ROYAL*   FAIR      77  48  36 CALM      29.96S
LURAY*         FAIR      79  48  34 E3        29.97S
$$

VAZ048-049-060>072-079>083-182300-
CENTRAL AND SOUTH CENTRAL VIRGINIA

CITY           SKY/WX    TMP DP  RH WIND       PRES   REMARKS
RICHMOND       CLOUDY    81  51  35 NE5       29.95S
CHESTERFIELD*  NOT AVBL
PETERSBURG*    PTSUNNY   82  49  31 NE7       29.95S
HANOVER        PTSUNNY   80  46  30 CALM      29.97S
TAPPAHANNOCK*  PTSUNNY   78  41  26 NE3       29.98R
QUINTON*       FAIR      79  49  35 N3        29.95S
CHARLOTTSVILLE CLOUDY    78  49  35 E7        29.96F
GORDONSVILLE*  FAIR      78  47  34 NE3       29.96F
ORANGE*        CLOUDY    79  45  29 CALM      29.98F
LOUISA*        PTSUNNY   79  46  31 NE5       29.95F
BUMPASS*       FAIR      78  46  31 NE3       29.96F
FARMVILLE*     PTSUNNY   79  53  40 NE5       29.93S
CREWE*         FAIR      79  48  33 N3        29.94F
FORT PICKETT*  FAIR      78  53  41 NE6       29.94F
CHASE CITY*    FAIR      83  57  41 E5        29.94S
CLARKSVILLE*   FAIR      81  54  39 CALM      29.93S
SOUTH HILL*    PTSUNNY   80  55  41 NE3       29.99S
LAWRENCEVILLE* FAIR      80  55  41 NE3       29.93F
EMPORIA*       MOSUNNY   79  55  44 N5        29.95S
$$

VAZ088>098-182300-
SOUTHEAST VIRGINIA

CITY           SKY/WX    TMP DP  RH WIND       PRES   REMARKS
NORFOLK        MOSUNNY   66  58  75 NE9       29.98R
VIRGINIA BEACH PTSUNNY   65  58  78 E8        29.98R
NORFOLK NAVAL  PTSUNNY   70  60  70 E12       29.99R
WEST POINT*    MOSUNNY   79  47  32 E7        29.98R
SALUDA*        FAIR      71  54  56 SE6       29.98R
NEWPORT NEWS   MOSUNNY   74  55  51 NE8       29.98R
LANGLEY AFB    MOSUNNY   68  62  80 E8        29.97R
FORT EUSTIS    MOSUNNY   74  52  45 E8        29.95R
WILLIAMSBURG*  MOSUNNY   79  55  44 E7        29.98R
HR EXEC AP*    FAIR      75  61  60 NE8       29.97S
FRANKLIN*      MOSUNNY  N/A N/A N/A E9        29.95S
WAKEFIELD      PTSUNNY   79  56  45 VRB7      29.95S
$$

VAZ020-022-025-037-045-182300-
WEST CENTRAL AND SOUTHWEST VIRGINIA

CITY           SKY/WX    TMP DP  RH WIND       PRES   REMARKS
STAUNTON*      PTSUNNY   75  46  34 NE6       29.99F
WAYNESBORO*    FAIR      74  48  40 N5        29.99S
HOT SPRINGS VA PTSUNNY   68  41  37 CALM      30.05R
LYNCHBURG      MOSUNNY   79  50  36 NE5       29.96S
DANVILLE       MOSUNNY   81  55  40 CALM      29.93S
SOUTH BOSTON*  FAIR      82  51  34 E5        29.93S
MARTINSVILLE   PTSUNNY   82  55  39 SE5       29.97S
ROANOKE        PTSUNNY   78  51  38 SE3       29.96S
BLACKSBURG     CLOUDY    76  46  35 E5        30.01R
DUBLIN*        MOSUNNY   77  46  32 E3        29.99S
MARION*        PTSUNNY   75  39  27 E5        30.01S
HILLSVILLE*    PTSUNNY   72  54  53 SE3       30.01S
RICHLANDS*     FAIR      77  39  25 E6        29.98S
WISE*          MOSUNNY   73  41  31 NE3       30.00S
ABINGDON*      CLOUDY    73  56  56 W8        29.97R
$$

MDZ021>025-VAZ099-100-182300-
SOUTHERN MARYLAND AND THE DELMARVA PENINSULA

CITY           SKY/WX    TMP DP  RH WIND       PRES   REMARKS
PATUXENT RIVER PTSUNNY   73  50  44 E3        29.97R
BAY BRIDGE APT   N/A     73  43  33 S7        29.97R
LEONARDTOWN    SUNNY     73  43  33 E5        29.99R
DOVER          SUNNY     72  55  54 E6        29.92R
GEORGETOWN     SUNNY     76  48  37 W8        29.96R
EASTON         SUNNY     77  48  36 NE6       30.01R
CAMBRIDGE      NOT AVBL
SALISBURY      MOSUNNY   74  50  42 S8        29.96R
OCEAN CITY     SUNNY     64  50  60 SE5       29.97R
WALLOPS ISLAND SUNNY     67  54  63 SE6       29.98R
ACCOMACK*      MOSUNNY   70  54  56 SE6       29.98R
$$

NCZ012>017-030>032-182300-
NORTH CENTRAL AND EASTERN NORTH CAROLINA

CITY           SKY/WX    TMP DP  RH WIND       PRES   REMARKS
ROANOKE RAPIDS MOCLDY    81  61  50 CALM      29.93S
RALEIGH        CLOUDY    76  62  62 SE3       29.95R
ELIZABETH CITY MOSUNNY   73  62  68 NE10      29.96R
AHOSKIE*       PTSUNNY   73  63  72 E3        29.95S
EDENTON*       MOSUNNY   70  64  82 E5        29.96S
CURRITUCK*     MOSUNNY   68  59  72 NE6       29.98R
KILL DEVIL HLS MOSUNNY   63  58  82 NE5       29.96R
MANTEO         MOSUNNY   67  62  85 NE5       29.97R
CAPE HATTERAS  PTSUNNY   70  62  76 SE6       29.95S
TARBORO*       CLOUDY    76  66  70 CALM      29.93S
GOLDSBORO      MOSUNNY   78  63  60 SE1       29.92S
WASHINGTON     MOSUNNY   76  66  72 S3        29.94R
GREENVILLE     MOSUNNY   79  66  65 SW9       29.95R
NEW BERN       PTSUNNY   75  65  70 S6        29.95R
WILMINGTON     MOSUNNY   74  62  66 VRB7      29.95S
$$

VAZ048-182300-
ELSEWHERE

CITY           SKY/WX    TMP DP  RH WIND       PRES   REMARKS
HARRISBURG PA  PTSUNNY   78  40  25 NW12      29.93R
BALTIMORE      CLOUDY    77  42  28 NW6       29.95R
ANNAPOLIS      MOSUNNY   70  48  45 SE8       29.97R
ANDREWS AFB    MOSUNNY   77  43  29 NW9       29.96R
PHILADELPHIA   MOSUNNY   80  41  24 SW12      29.92R
GREENSBORO     CLOUDY    75  59  57 S5        29.95S
ROCKY MOUNT    PTSUNNY   79  63  57 N5        29.93R
$$

VAZ100-182300-
MARINE

STATION/POSITION TIME  TEMP    WIND        PRES    WAVE   SWELL
                       AIR SEA DIR/SP/G            HT/PER HT/PER
                 (UTC) (F)     (DEG/KT/KT) (MB)    (FT/S) (FT/S)
CAPE MAY NJ      2100   67 56  170/  7/  9 1013.8R
LEWES DE         2100   71 53  150/  9/ 11 1014.0R
15NM E FENWICK I 2150   60 55              1014.8R   3/12
OCEAN-CITY-INLET 2100   64 59  100/  5/  7 1014.3F
WACHAPREAGUE VA  2100   64 69   90/  5/  6 1015.1R
THOMAS POINT MD  2200   71 53  160/  4/  6 1015.5R
GOOSES REEF MD   2200   67 61  230/  4/  6   N/A     0
COVE POINT MD    2100   65     320/  3/  4 1014.3F
SOLOMONS ISLAND  2100      56                N/A
BISHOPS HEAD MD  2100   68 67  250/  8/  8 1014.1R
PINEY POINT MD   2100          180/  5/  6   N/A
CAMBRIDGE MD     2100   72 58  330/  6/  7 1014.4R
LEWISETTA VA     2100   67 62              1014.4R
RAPPAHANNOCK LGT 2100           10/  7/  8 1015.2R
STINGRAY PT      2200   64 59  160/  4/  4 1018.2R
YORK RVR RNG VA  2100   61     120/  7/ 10 1014.3R
YORKTOWN VA      2100   69 60  120/  8/ 10 1014.6R
DOMINION TERM VA 2100   65      70/  9/ 10 1014.7R
KIPTOPEKE VA     2100      63   90/  4/ 10   N/A
CHES BAY BRIDGE  2100   56 55   80/  9/ 10 1014.5R
CAPE HENRY VA    2100   57     100/  6/  7 1013.8R
CHESAPEAKE LGHT  2100   55      70/  9/ 10 1015.7R
WILLOUBY STN VA  2100   61      90/  9/  9 1015.4R
S CRANEY ISL VA  2100           50/  5/  6 1014.4S
CAPE HENRY BUOY  2128      55                N/A     3/ 7   2/11
1ST LANDING BUOY 2200   54     100/  8/ 10 1015.3R   2/ 5
OFFSHORE WE BUOY 2111      51                N/A     3/ 8   3/ 8
64NM E OF VA BCH 2150   58 56   40/  6/  6 1014.7R   4/ 8   3/ 8
DUCK PIER NC     2100   57 56   30/  5/  6 1013.7R
44056 DUCK FRF   2111      57                N/A     3/ 8   2/11
OREGON INLET NC  2100   59 63   30/  8/ 10 1014.6R
HATTERAS NC      2100   71 68  110/  5/  7 1013.9S
DIAMOND SHLS NC  2150   72 75   30/  6/  6 1014.2S   5/ 9   5/ 9
CAPE LOOKOUT NC  2200   71      CALM  /  2 1013.7F
$$


USA.gov is the U.S. government's official web portal to all federal, state and local government web resources and services.